Regional Weather Roundup
Issued by NWS State College, PA

Home | Current Version | Previous Version | Graphics & Text | Print | Product List | Glossary Off
Versions: 1 2 3 4 5 6 7 8 9 10 11 12 13 14 15 16 17 18 19 20 21 22 23 24 25 26 27 28 29 30 31 32 33 34 35 36 37 38 39 40 41 42 43 44 45 46 47 48 49 50

000
ASUS41 KCTP 121910
RWRCTP

REGIONAL WEATHER ROUNDUP
NATIONAL WEATHER SERVICE STATE COLLEGE PA
300 PM EDT SAT JUL 12 2014

Note: "fair" indicates few or no clouds below 12,000 feet with no
significant weather and/or obstructions to visibility.

* = STATION THAT DOES NOT REPORT PRECIPITATION /E.G. RAIN...SNOW...ETC/
    THUNDER OR FOG.

PAZ002>004-007>009-013>016-020>023-029>032-122000-
WESTERN PENNSYLVANIA

CITY           SKY/WX    TMP DP  RH WIND       PRES   REMARKS
ERIE           MOSUNNY   82  60  47 NW5       30.13F
MEADVILLE      PTSUNNY   79  59  50 SW7       30.17F
FRANKLIN*      MOSUNNY   81  59  47 SW9       30.20S
NEW CASTLE       N/A     85  62  45 VRB3      30.17F
BEAVER COUNTY  PTSUNNY   84  61  45 SW6       30.18S
BUTLER*        MOSUNNY   84  61  45 SW8       30.19F
PITTSBURGH INT CLOUDY    85  57  38 SW12      30.17F
PITTSBURGH     MOSUNNY   85  57  38 S9        30.17F
INDIANA*       MOSUNNY   82  55  39 W8G15     30.22F
LATROBE        MOSUNNY   84  61  45 SW6       30.19F
WASHINGTON CO* MOSUNNY   84  63  48 SW3       30.19S
$$

PAZ004>006-010>012-017>019-024>028-033>037-041-042-045-046-049>053-122000-
CENTRAL PENNSYLVANIA

CITY           SKY/WX    TMP DP  RH WIND       PRES   REMARKS
BRADFORD       PTSUNNY   79  56  45 SW5       30.19F
DUBOIS         MOSUNNY   81  59  47 SW9       30.19F
CLEARFIELD     MOSUNNY   83  55  38 SW9G17    30.18F
JOHNSTOWN      MOSUNNY   79  55  43 SW7       30.23S
ALTOONA        MOSUNNY   83  63  50 SW8       30.19F
STATE COLLEGE  MOSUNNY   82  61  47 W12       30.16F
WILLIAMSPORT   PTSUNNY   82  68  62 CALM      30.12F
SELINSGROVE    SUNNY     85  70  60 VRB5      30.14F
FT INDIANTOWN  NOT AVBL
CAPITAL CITY   MOSUNNY   79  71  76 E9        30.15F
HARRISBURG     PTSUNNY   79  72  79 E5        30.14F
YORK           PTSUNNY   85  69  58 VRB7      30.15F
$$

PAZ038>040-043-044-047-048-054-055-060>062-067>071-122000-
EASTERN PENNSYLVANIA

CITY           SKY/WX    TMP DP  RH WIND       PRES   REMARKS
SCRANTON       PTSUNNY   81  65  58 S6        30.17F
MOUNT POCONO   PTSUNNY   79  62  56 SW12G22   30.23F
ALLENTOWN      PTSUNNY   86  62  44 S9        30.16F
QUAKERTOWN*    PTCLDY    86  66  51 S8        30.19S
READING        CLOUDY    84  65  52 S9        30.16S
LANCASTER      PTSUNNY   82  67  60 S9        30.16F
COATESVILLE    PTCLDY    82  64  54 SE7       30.20F
POTTSTOWN      MOSUNNY   86  64  47 SW8       30.19F
BLUE BELL      MOSUNNY   88  64  45 S6        30.17F
DOYLESTOWN     PTSUNNY   83  63  50 S5        30.18F
WILLOW GROVE   NOT AVBL
NORTH PHILA    CLOUDY    86  59  39 VRB6      30.18F
PHILADELPHIA   MOSUNNY   89  62  40 S8        30.17F
$$



USA.gov is the U.S. government's official web portal to all federal, state and local government web resources and services.